Tracking 35237 objects as of 5-Sep-2026
HD Live streaming from Space Station
objects crossing your sky now

STARLINK-32766

Track STARLINK-32766 now!
10-day predictions
STARLINK-32766 is classified as:


NORAD ID: 62574
Int'l Code: 2025-006W
Launch date: January 10, 2025
Source: United States (US)
Launch site: AIR FORCE EASTERN TEST RANGE (AFETR)
Your satellite tracking list
Your tracking list is empty




NASA's NSSDC Master Catalog

Two Line Element Set (TLE):
1 62574U 25006W   26247.65763641  .00016709  00000-0  61537-3 0  9994
2 62574  43.0020   1.8394 0001765 260.5417  99.5235 15.27578455 92232
Source of the keplerian elements: AFSPC